Grand Forks, ND

5:05 PM CDT on May 24, 2018 (GMT -0500)
Grand Forks International

Weather History for KGFK - September, 2013

Change the Weather History Date:

Wednesday, September 25, 2013

  Actual Average Record
Temperature  
Mean Temperature 62 °F 53 °F  
Max Temperature 77 °F 65 °F 86 °F (1974)
Min Temperature 46 °F 40 °F 23 °F (1985)
Degree Days  
Heating Degree Days 3 13  
Month to date heating degree days 101 199  
Since 1 July heating degree days 183 281  
Cooling Degree Days 0 0  
Month to date cooling degree days 38 24  
Year to date cooling degree days 486 376  
Growing Degree Days 12 (Base 50)    
Moisture  
Dew Point 51 °F    
Average Humidity 72    
Maximum Humidity 100    
Minimum Humidity 43    
Precipitation  
Precipitation 0.00 in 0.07 in 0.48 in (1986)
Month to date precipitation 0.69 1.73  
Year to date precipitation 14.92 16.96  
Snow  
Snow 0.00 in 0.00 in T in (1984)
Month to date snowfall 0.0 0.0  
Since 1 July snowfall 0.0 0.0  
Since 1 September snowfall 0.0 0.0  
Snow Depth 0.00 in    
Sea Level Pressure  
Sea Level Pressure 29.77 in    
Wind  
Wind Speed 14 mph (SSE)    
Max Wind Speed 28 mph    
Max Gust Speed 33 mph    
Visibility 10 miles    
Events      
T = Trace of Precipitation, MM = Missing Value Source: NWS Daily Summary

Daily Weather History Graph

Daily Weather History Graph

Search for Another Location

Airport or City:

Astronomy

Sep. 25, 2013 Rise Set
Actual Time 7:19 AM CDT 7:19 PM CDT
Civil Twilight 6:49 AM CDT 7:50 PM CDT
Nautical Twilight 6:12 AM CDT 8:26 PM CDT
Astronomical Twilight 5:35 AM CDT 9:03 PM CDT
Moon 11:03 PM CDT (9/25) 1:50 PM CDT (9/25)
Length of Visible Light 13h 01m
Length of Day
11h 59m
Waning Gibbous, 64% of the Moon is Illuminated
Sep 25
Waning Gibbous
Sep 26
Last Quarter
Oct 4
New
Oct 11
First Quarter
Oct 18
Full

Hourly Weather History & Observations

Time (CDT) Temp. Dew Point Humidity Pressure Visibility Wind Dir Wind Speed Gust Speed Precip Events Conditions
12:53 AM 52.0 °F 46.9 °F 83% 29.85 in 10.0 mi SSW 3.5 mph - N/A   Clear
1:53 AM 52.0 °F 46.9 °F 83% 29.85 in 10.0 mi SE 5.8 mph - N/A   Clear
2:53 AM 46.9 °F 45.0 °F 93% 29.85 in 10.0 mi SE 4.6 mph - N/A   Clear
3:53 AM 50.0 °F 46.9 °F 89% 29.84 in 10.0 mi SE 5.8 mph - N/A   Clear
4:53 AM 48.9 °F 46.9 °F 93% 29.82 in 10.0 mi SE 5.8 mph - N/A   Clear
5:53 AM 48.9 °F 48.0 °F 97% 29.83 in 8.0 mi SSE 5.8 mph - N/A   Clear
6:53 AM 48.9 °F 48.0 °F 97% 29.82 in 9.0 mi SSE 4.6 mph - N/A   Partly Cloudy
7:53 AM 50.0 °F 48.0 °F 93% 29.82 in 7.0 mi SSE 6.9 mph - N/A   Partly Cloudy
8:53 AM 54.0 °F 51.1 °F 90% 29.82 in 10.0 mi SSE 10.4 mph - N/A   Scattered Clouds
9:53 AM 61.0 °F 54.0 °F 78% 29.83 in 10.0 mi SSE 12.7 mph - N/A   Partly Cloudy
10:53 AM 66.9 °F 55.0 °F 66% 29.81 in 10.0 mi SSE 17.3 mph - N/A   Scattered Clouds
11:53 AM 72.0 °F 55.0 °F 55% 29.79 in 10.0 mi SSE 19.6 mph 26.5 mph N/A   Mostly Cloudy
12:53 PM 73.9 °F 54.0 °F 50% 29.78 in 10.0 mi SSE 21.9 mph 25.3 mph N/A   Mostly Cloudy
1:53 PM 75.9 °F 55.0 °F 48% 29.75 in 10.0 mi SSE 23.0 mph 26.5 mph N/A   Scattered Clouds
2:53 PM 77.0 °F 53.1 °F 43% 29.73 in 10.0 mi South 19.6 mph 28.8 mph N/A   Scattered Clouds
3:53 PM 75.9 °F 54.0 °F 46% 29.70 in 10.0 mi SSE 25.3 mph 32.2 mph N/A   Scattered Clouds
4:53 PM 75.0 °F 54.0 °F 48% 29.69 in 10.0 mi SSE 23.0 mph 31.1 mph N/A   Scattered Clouds
5:53 PM 75.0 °F 53.1 °F 46% 29.69 in 10.0 mi SE 20.7 mph 31.1 mph N/A   Scattered Clouds
6:53 PM 72.0 °F 52.0 °F 49% 29.69 in 10.0 mi SE 17.3 mph 26.5 mph N/A   Mostly Cloudy
7:53 PM 69.1 °F 52.0 °F 54% 29.70 in 10.0 mi SE 18.4 mph 24.2 mph N/A   Mostly Cloudy
8:53 PM 66.0 °F 51.1 °F 59% 29.71 in 10.0 mi SE 11.5 mph - N/A   Mostly Cloudy
9:53 PM 64.9 °F 52.0 °F 63% 29.73 in 10.0 mi SE 15.0 mph - N/A   Mostly Cloudy
10:53 PM 64.0 °F 52.0 °F 65% 29.72 in 10.0 mi SE 16.1 mph - N/A   Mostly Cloudy
11:53 PM 63.0 °F 52.0 °F 67% 29.72 in 10.0 mi SE 17.3 mph - N/A   Clear